Time,TemperatureF,DewpointF,PressureIn,WindDirection,WindDirectionDegrees,WindSpeedMPH,WindSpeedGustMPH,Humidity,HourlyPrecipIn,Conditions,Clouds,dailyrainin,SolarRadiationWatts/m^2,SoftwareType,DateUTC
2013-02-22 00:03:00,25.1,24.0,29.93,East,84,16.0,28.0,94,0.00,,,0.00,0,weatherlink.com 1.10,2013-02-22 06:03:00,
2013-02-22 00:18:00,25.1,24.0,29.93,East,81,14.0,21.0,94,0.00,,,0.00,0,weatherlink.com 1.10,2013-02-22 06:18:00,
2013-02-22 00:33:00,25.0,24.0,29.91,East,88,19.0,24.0,94,0.00,,,0.00,0,weatherlink.com 1.10,2013-02-22 06:33:00,
2013-02-22 00:48:00,25.0,24.0,29.90,East,88,15.0,25.0,94,0.00,,,0.00,0,weatherlink.com 1.10,2013-02-22 06:48:00,
2013-02-22 01:03:00,24.9,24.0,29.90,East,84,16.0,21.0,94,0.00,,,0.00,0,weatherlink.com 1.10,2013-02-22 07:03:00,
2013-02-22 01:18:00,24.9,24.0,29.90,East,94,17.0,21.0,94,0.00,,,0.00,0,weatherlink.com 1.10,2013-02-22 07:18:00,
2013-02-22 01:33:00,24.9,24.0,29.90,ESE,103,15.0,23.0,94,0.00,,,0.00,0,weatherlink.com 1.10,2013-02-22 07:33:00,
2013-02-22 01:48:00,24.9,24.0,29.89,East,90,19.0,21.0,94,0.00,,,0.00,0,weatherlink.com 1.10,2013-02-22 07:48:00,
2013-02-22 02:03:00,24.8,23.0,29.89,East,91,16.0,21.0,94,0.00,,,0.00,0,weatherlink.com 1.10,2013-02-22 08:03:00,
2013-02-22 02:18:00,24.8,23.0,29.88,East,93,17.0,19.0,94,0.00,,,0.00,0,weatherlink.com 1.10,2013-02-22 08:18:00,
2013-02-22 02:33:00,24.6,23.0,29.88,East,93,19.0,21.0,94,0.00,,,0.00,0,weatherlink.com 1.10,2013-02-22 08:33:00,
2013-02-22 02:48:00,24.6,23.0,29.87,East,98,11.0,17.0,94,0.00,,,0.00,0,weatherlink.com 1.10,2013-02-22 08:48:00,
2013-02-22 03:03:00,24.5,23.0,29.86,East,87,13.0,18.0,94,0.00,,,0.00,0,weatherlink.com 1.10,2013-02-22 09:03:00,
2013-02-22 03:18:00,24.5,23.0,29.85,East,94,16.0,18.0,94,0.00,,,0.00,0,weatherlink.com 1.10,2013-02-22 09:18:00,
2013-02-22 03:33:00,24.3,23.0,29.84,East,96,14.0,17.0,93,0.00,,,0.00,0,weatherlink.com 1.10,2013-02-22 09:33:00,
2013-02-22 03:48:00,24.3,23.0,29.84,ESE,108,19.0,23.0,93,0.00,,,0.00,0,weatherlink.com 1.10,2013-02-22 09:48:00,
2013-02-22 04:03:00,24.3,23.0,29.83,East,101,16.0,22.0,93,0.00,,,0.00,0,weatherlink.com 1.10,2013-02-22 10:03:00,
2013-02-22 04:18:00,24.2,23.0,29.82,East,95,15.0,19.0,93,0.00,,,0.00,0,weatherlink.com 1.10,2013-02-22 10:18:00,
2013-02-22 04:33:00,24.2,23.0,29.82,East,98,16.0,19.0,93,0.00,,,0.00,0,weatherlink.com 1.10,2013-02-22 10:33:00,
2013-02-22 04:48:00,24.2,22.0,29.81,ESE,108,17.0,21.0,92,0.00,,,0.00,0,weatherlink.com 1.10,2013-02-22 10:48:00,
2013-02-22 05:03:00,24.1,22.0,29.81,ESE,107,15.0,21.0,92,0.00,,,0.00,0,weatherlink.com 1.10,2013-02-22 11:03:00,
2013-02-22 05:18:00,24.0,22.0,29.81,ESE,111,14.0,23.0,92,0.00,,,0.00,0,weatherlink.com 1.10,2013-02-22 11:18:00,
2013-02-22 05:33:00,24.0,22.0,29.81,ESE,106,17.0,17.0,92,0.00,,,0.00,0,weatherlink.com 1.10,2013-02-22 11:33:00,
2013-02-22 05:48:00,24.0,22.0,29.80,East,99,13.0,17.0,92,0.00,,,0.00,0,weatherlink.com 1.10,2013-02-22 11:48:00,
2013-02-22 06:03:00,23.7,22.0,29.80,ESE,107,14.0,21.0,92,0.00,,,0.00,0,weatherlink.com 1.10,2013-02-22 12:03:00,
2013-02-22 06:18:00,23.5,22.0,29.79,ESE,109,19.0,21.0,92,0.00,,,0.00,0,weatherlink.com 1.10,2013-02-22 12:18:00,
2013-02-22 06:33:00,23.3,21.0,29.79,ESE,104,15.0,18.0,92,0.00,,,0.00,0,weatherlink.com 1.10,2013-02-22 12:33:00,
2013-02-22 06:48:00,23.3,22.0,29.79,ESE,108,14.0,16.0,93,0.00,,,0.00,0,weatherlink.com 1.10,2013-02-22 12:48:00,
2013-02-22 07:04:00,23.3,22.0,29.79,ESE,109,13.0,15.0,93,0.00,,,0.00,7,weatherlink.com 1.10,2013-02-22 13:04:00,
2013-02-22 07:19:00,23.3,22.0,29.79,ESE,105,12.0,15.0,93,0.00,,,0.00,14,weatherlink.com 1.10,2013-02-22 13:19:00,
2013-02-22 07:34:00,23.3,22.0,29.80,ESE,113,12.0,13.0,93,0.00,,,0.00,26,weatherlink.com 1.10,2013-02-22 13:34:00,
2013-02-22 07:49:00,23.4,22.0,29.79,ESE,107,10.0,14.0,93,0.00,,,0.00,35,weatherlink.com 1.10,2013-02-22 13:49:00,
2013-02-22 08:04:00,23.4,22.0,29.79,East,100,9.0,12.0,93,0.00,,,0.00,65,weatherlink.com 1.10,2013-02-22 14:04:00,
2013-02-22 08:19:00,23.5,22.0,29.79,ESE,105,10.0,11.0,93,0.00,,,0.00,88,weatherlink.com 1.10,2013-02-22 14:19:00,
2013-02-22 08:34:00,23.6,22.0,29.79,ESE,107,9.0,13.0,93,0.00,,,0.00,98,weatherlink.com 1.10,2013-02-22 14:34:00,
2013-02-22 08:49:00,23.8,22.0,29.79,ESE,111,8.0,10.0,93,0.00,,,0.00,128,weatherlink.com 1.10,2013-02-22 14:49:00,
2013-02-22 09:04:00,24.0,22.0,29.78,ESE,108,9.0,9.0,93,0.00,,,0.00,186,weatherlink.com 1.10,2013-02-22 15:04:00,
2013-02-22 09:19:00,24.2,23.0,29.78,ESE,115,8.0,10.0,93,0.00,,,0.00,199,weatherlink.com 1.10,2013-02-22 15:19:00,
2013-02-22 09:34:00,24.3,23.0,29.79,ESE,118,7.0,10.0,93,0.00,,,0.00,195,weatherlink.com 1.10,2013-02-22 15:34:00,
2013-02-22 09:49:00,24.5,23.0,29.79,SE,126,6.0,10.0,93,0.00,,,0.00,241,weatherlink.com 1.10,2013-02-22 15:49:00,
2013-02-22 10:04:00,24.7,23.0,29.79,ESE,123,9.0,10.0,93,0.00,,,0.00,279,weatherlink.com 1.10,2013-02-22 16:04:00,
2013-02-22 10:19:00,25.0,23.0,29.79,SE,129,5.0,8.0,93,0.00,,,0.00,318,weatherlink.com 1.10,2013-02-22 16:19:00,
2013-02-22 10:34:00,25.2,24.0,29.79,SE,126,6.0,8.0,93,0.00,,,0.00,360,weatherlink.com 1.10,2013-02-22 16:34:00,
2013-02-22 10:49:00,25.6,24.0,29.79,SE,125,4.0,8.0,93,0.00,,,0.00,403,weatherlink.com 1.10,2013-02-22 16:49:00,
2013-02-22 11:04:00,26.0,24.0,29.79,SE,134,6.0,8.0,93,0.00,,,0.00,383,weatherlink.com 1.10,2013-02-22 17:04:00,
2013-02-22 11:19:00,26.0,24.0,29.79,SE,128,8.0,8.0,93,0.00,,,0.00,485,weatherlink.com 1.10,2013-02-22 17:19:00,
2013-02-22 11:34:00,25.9,24.0,29.78,ESE,121,7.0,9.0,93,0.00,,,0.00,432,weatherlink.com 1.10,2013-02-22 17:34:00,
2013-02-22 11:49:00,26.3,25.0,29.77,ESE,123,5.0,8.0,93,0.00,,,0.00,489,weatherlink.com 1.10,2013-02-22 17:49:00,
2013-02-22 12:04:00,26.8,25.0,29.77,ESE,120,7.0,8.0,93,0.01,,,0.01,547,weatherlink.com 1.10,2013-02-22 18:04:00,
2013-02-22 12:19:00,27.2,26.0,29.77,SE,143,6.0,8.0,93,0.01,,,0.01,541,weatherlink.com 1.10,2013-02-22 18:19:00,
2013-02-22 12:34:00,27.6,26.0,29.77,SE,144,1.0,5.0,93,0.02,,,0.02,396,weatherlink.com 1.10,2013-02-22 18:34:00,
2013-02-22 12:50:00,28.4,27.0,29.76,SE,144,0.0,2.0,93,0.03,,,0.03,366,weatherlink.com 1.10,2013-02-22 18:50:00,
2013-02-22 13:05:00,28.0,26.0,29.77,SE,144,1.0,4.0,92,0.02,,,0.03,269,weatherlink.com 1.10,2013-02-22 19:05:00,
2013-02-22 13:20:00,27.8,26.0,29.78,SW,223,7.0,8.0,93,0.02,,,0.03,199,weatherlink.com 1.10,2013-02-22 19:20:00,
2013-02-22 13:35:00,28.1,26.0,29.79,WSW,255,6.0,9.0,92,0.01,,,0.03,171,weatherlink.com 1.10,2013-02-22 19:35:00,
2013-02-22 13:50:00,27.9,26.0,29.78,WSW,255,6.0,11.0,92,0.00,,,0.03,192,weatherlink.com 1.10,2013-02-22 19:50:00,
2013-02-22 14:05:00,28.1,26.0,29.78,West,273,5.0,11.0,92,0.00,,,0.03,197,weatherlink.com 1.10,2013-02-22 20:05:00,
2013-02-22 14:20:00,28.1,26.0,29.79,West,261,4.0,9.0,92,0.00,,,0.03,204,weatherlink.com 1.10,2013-02-22 20:20:00,
2013-02-22 14:35:00,28.3,26.0,29.79,West,274,6.0,11.0,91,0.00,,,0.03,230,weatherlink.com 1.10,2013-02-22 20:35:00,
2013-02-22 14:50:00,28.4,26.0,29.79,WNW,296,4.0,10.0,91,0.00,,,0.03,178,weatherlink.com 1.10,2013-02-22 20:50:00,
2013-02-22 15:05:00,28.2,26.0,29.79,WNW,289,3.0,12.0,90,0.00,,,0.03,155,weatherlink.com 1.10,2013-02-22 21:05:00,
2013-02-22 15:20:00,28.3,26.0,29.79,West,267,2.0,7.0,91,0.00,,,0.03,144,weatherlink.com 1.10,2013-02-22 21:20:00,
2013-02-22 15:35:00,28.4,26.0,29.80,West,266,3.0,8.0,91,0.00,,,0.03,183,weatherlink.com 1.10,2013-02-22 21:35:00,
2013-02-22 15:50:00,28.3,26.0,29.80,WSW,256,3.0,6.0,90,0.00,,,0.03,91,weatherlink.com 1.10,2013-02-22 21:50:00,
2013-02-22 16:05:00,28.2,26.0,29.80,West,264,6.0,8.0,90,0.00,,,0.03,97,weatherlink.com 1.10,2013-02-22 22:05:00,
2013-02-22 16:20:00,28.0,25.0,29.80,West,264,7.0,8.0,89,0.00,,,0.03,70,weatherlink.com 1.10,2013-02-22 22:20:00,
2013-02-22 16:50:00,27.8,25.0,29.82,West,262,3.0,6.0,90,0.00,,,0.03,35,weatherlink.com 1.10,2013-02-22 22:50:00,
2013-02-22 17:05:00,27.6,25.0,29.82,West,267,4.0,7.0,90,0.00,,,0.03,19,weatherlink.com 1.10,2013-02-22 23:05:00,
2013-02-22 17:20:00,27.5,25.0,29.82,West,261,7.0,9.0,90,0.00,,,0.03,11,weatherlink.com 1.10,2013-02-22 23:20:00,
2013-02-22 17:35:00,27.3,25.0,29.83,West,259,8.0,8.0,90,0.00,,,0.03,0,weatherlink.com 1.10,2013-02-22 23:35:00,
2013-02-22 17:50:00,27.2,25.0,29.83,WSW,258,7.0,8.0,90,0.00,,,0.03,0,weatherlink.com 1.10,2013-02-22 23:50:00,
2013-02-22 18:05:00,27.0,25.0,29.84,WSW,248,7.0,11.0,90,0.00,,,0.03,0,weatherlink.com 1.10,2013-02-23 00:05:00,
2013-02-22 18:20:00,26.8,24.0,29.84,WSW,250,5.0,11.0,90,0.00,,,0.03,0,weatherlink.com 1.10,2013-02-23 00:20:00,
2013-02-22 18:35:00,26.7,24.0,29.84,WSW,250,6.0,11.0,90,0.00,,,0.03,0,weatherlink.com 1.10,2013-02-23 00:35:00,
2013-02-22 18:50:00,26.6,24.0,29.85,West,268,5.0,11.0,91,0.00,,,0.03,0,weatherlink.com 1.10,2013-02-23 00:50:00,
2013-02-22 19:05:00,26.5,24.0,29.85,West,260,6.0,11.0,91,0.00,,,0.03,0,weatherlink.com 1.10,2013-02-23 01:05:00,
2013-02-22 19:20:00,26.4,24.0,29.85,West,261,4.0,9.0,91,0.00,,,0.03,0,weatherlink.com 1.10,2013-02-23 01:20:00,
2013-02-22 19:35:00,26.3,24.0,29.85,WSW,251,4.0,10.0,91,0.00,,,0.03,0,weatherlink.com 1.10,2013-02-23 01:35:00,
2013-02-22 19:50:00,25.8,23.0,29.85,WSW,250,8.0,10.0,90,0.00,,,0.03,0,weatherlink.com 1.10,2013-02-23 01:50:00,
2013-02-22 20:05:00,25.4,23.0,29.86,WSW,249,4.0,11.0,91,0.00,,,0.03,0,weatherlink.com 1.10,2013-02-23 02:05:00,
2013-02-22 20:20:00,25.7,24.0,29.86,West,261,4.0,9.0,92,0.00,,,0.03,0,weatherlink.com 1.10,2013-02-23 02:20:00,
2013-02-22 20:35:00,26.0,24.0,29.86,WSW,255,6.0,10.0,91,0.00,,,0.03,0,weatherlink.com 1.10,2013-02-23 02:35:00,
2013-02-22 20:50:00,26.0,24.0,29.86,WSW,250,5.0,11.0,91,0.00,,,0.03,0,weatherlink.com 1.10,2013-02-23 02:50:00,
2013-02-22 21:05:00,26.1,24.0,29.86,West,263,5.0,11.0,91,0.00,,,0.03,0,weatherlink.com 1.10,2013-02-23 03:05:00,
2013-02-22 21:20:00,26.2,24.0,29.87,West,264,7.0,10.0,91,0.00,,,0.03,0,weatherlink.com 1.10,2013-02-23 03:20:00,
2013-02-22 21:35:00,26.2,24.0,29.87,West,263,4.0,9.0,91,0.00,,,0.03,0,weatherlink.com 1.10,2013-02-23 03:35:00,
2013-02-22 21:50:00,26.0,24.0,29.86,WNW,282,6.0,12.0,91,0.00,,,0.03,0,weatherlink.com 1.10,2013-02-23 03:50:00,
2013-02-22 22:05:00,25.8,23.0,29.86,West,277,6.0,9.0,90,0.00,,,0.03,0,weatherlink.com 1.10,2013-02-23 04:05:00,
2013-02-22 22:20:00,25.7,23.0,29.87,WSW,256,8.0,11.0,90,0.00,,,0.03,0,weatherlink.com 1.10,2013-02-23 04:20:00,
2013-02-22 22:35:00,25.5,23.0,29.87,WSW,254,6.0,12.0,90,0.00,,,0.03,0,weatherlink.com 1.10,2013-02-23 04:35:00,
2013-02-22 22:50:00,25.2,23.0,29.87,WSW,254,8.0,11.0,90,0.00,,,0.03,0,weatherlink.com 1.10,2013-02-23 04:50:00,
2013-02-22 23:05:00,25.0,23.0,29.87,WSW,246,10.0,10.0,90,0.00,,,0.03,0,weatherlink.com 1.10,2013-02-23 05:05:00,
2013-02-22 23:20:00,24.8,22.0,29.87,WSW,256,12.0,12.0,90,0.00,,,0.03,0,weatherlink.com 1.10,2013-02-23 05:20:00,
2013-02-22 23:35:00,24.6,22.0,29.87,WSW,248,8.0,12.0,90,0.00,,,0.03,0,weatherlink.com 1.10,2013-02-23 05:35:00,
2013-02-22 23:50:00,24.3,22.0,29.87,WSW,245,7.0,13.0,89,0.00,,,0.03,0,weatherlink.com 1.10,2013-02-23 05:50:00,